GW0701 Weather Reports


Display with metric or nautical units.
time (UTC)temp
F
wind
direction
speed
MPH
gust
MPH
rain 1hr
in
rain 24hr
in
rain mn
in
humidity
%
barometer
mb
20260505083219 53 350 2.0 3.0 0.00 0.00 0.00 51 1007.7
20260505082715 53 336 2.0 2.0 0.00 0.00 0.00 51 1007.8
20260505082213 54 355 3.0 3.0 0.00 0.00 0.00 52 1007.6
20260505081708 54 0 4.0 5.0 0.00 0.00 0.00 52 1006.8
20260505081206 54 38 5.0 7.0 0.00 0.00 0.00 51 1007.1
20260505080703 54 41 4.0 9.0 0.00 0.00 0.00 51 1007.3
20260505080158 54 326 6.0 9.0 0.00 0.00 0.00 50 1007.6
20260505075654 54 313 3.0 3.0 0.00 0.00 0.00 50 1007.8
20260505075151 55 323 1.0 2.0 0.00 0.00 0.00 50 1007.2
20260505074648 55 333 3.0 3.0 0.00 0.00 0.00 50 1007.6
20260505074145 55 10 3.0 3.0 0.00 0.00 0.00 50 1007.4
20260505073643 55 20 1.0 2.0 0.00 0.00 0.00 50 1007.5
20260505073141 55 171 3.0 5.0 0.00 0.00 0.00 51 1007.3
20260505072636 55 24 4.0 5.0 0.00 0.00 0.00 51 1007.4
20260505072133 55 265 1.0 1.0 0.00 0.00 0.00 52 1007.4
20260505071628 55 353 3.0 3.0 0.00 0.00 0.00 51 1007.3
20260505071127 55 15 3.0 7.0 0.00 0.00 0.00 52 1007.4
20260505070624 55 15 3.0 5.0 0.00 0.00 0.00 51 1007.4
20260505070120 55 22 3.0 5.0 0.00 0.00 0.00 52 1007.1
20260505065616 55 214 0.0 1.0 0.00 0.00 0.00 53 1007.1
20260505065113 55 88 1.0 1.0 0.00 0.00 0.00 54 1006.7
20260505064609 56 288 2.0 2.0 0.00 0.00 0.00 51 1006.9
20260505064108 56 300 3.0 5.0 0.00 0.00 0.00 51 1007.0
20260505063605 56 288 2.0 2.0 0.00 0.00 0.00 51 1006.9
20260505063101 56 286 2.0 2.0 0.00 0.00 0.00 51 1006.7
20260505062557 57 345 2.0 2.0 0.00 0.00 0.00 50 1006.7
20260505062055 57 283 1.0 2.0 0.00 0.00 0.00 51 1006.9
20260505061552 57 310 1.0 1.0 0.00 0.00 0.00 51 1006.8
20260505061050 57 302 4.0 5.0 0.00 0.00 0.00 49 1006.6
20260505060547 57 275 0.0 1.0 0.00 0.00 0.00 51 1006.3
20260505060044 57 326 5.0 7.0 0.00 0.00 0.00 51 1006.3
20260505055539 57 352 2.0 2.0 0.00 0.00 0.00 50 1006.1
20260505055036 57 294 1.0 1.0 0.00 0.00 0.00 50 1005.8
20260505054533 57 46 1.0 2.0 0.00 0.00 0.00 49 1005.9
20260505054032 58 355 3.0 6.0 0.00 0.00 0.00 49 1005.8
20260505053528 58 337 1.0 1.0 0.00 0.00 0.00 48 1005.6
20260505053025 58 62 2.0 3.0 0.00 0.00 0.00 49 1005.4
20260505052522 59 322 2.0 3.0 0.00 0.00 0.00 48 1005.2
20260505052020 59 310 1.0 1.0 0.00 0.00 0.00 50 1005.1
20260505051516 59 323 3.0 6.0 0.00 0.00 0.00 48 1005.1
20260505051014 59 56 3.0 5.0 0.00 0.00 0.00 49 1005.0
20260505050512 59 37 2.0 2.0 0.00 0.00 0.00 49 1004.7
20260505041440 62 311 11.0 14.0 0.00 0.00 0.00 49 1003.5
20260505040937 62 20 8.0 9.0 0.00 0.00 0.00 49 1003.1
20260505040434 63 355 5.0 7.0 0.00 0.00 0.00 49 1003.2
20260505035931 63 24 4.0 7.0 0.00 0.00 0.00 47 1002.9
20260505035427 63 357 7.0 9.0 0.00 0.00 0.00 47 1003.1
20260505034925 63 349 2.0 3.0 0.00 0.00 0.00 48 1003.1
20260505034421 64 350 4.0 9.0 0.00 0.00 0.00 49 1003.2
20260505033918 64 33 6.0 10.0 0.00 0.00 0.00 48 1003.3
20260505033414 64 71 2.0 3.0 0.00 0.00 0.00 48 1003.4
20260505032913 64 10 5.0 7.0 0.00 0.00 0.00 47 1003.6
20260505032409 65 0 3.0 3.0 0.00 0.00 0.00 47 1003.6
20260505031906 65 340 6.0 7.0 0.00 0.00 0.00 47 1003.4
20260505031403 66 314 6.0 8.0 0.00 0.00 0.00 47 1003.5
20260505030900 66 318 4.0 7.0 0.00 0.00 0.00 46 1003.4
20260505030356 66 10 2.0 3.0 0.00 0.00 0.00 47 1003.1
20260505025851 66 347 3.0 5.0 0.00 0.00 0.00 48 1003.2
20260505025349 67 43 3.0 5.0 0.00 0.00 0.00 48 1003.0
20260505024848 67 40 5.0 6.0 0.00 0.00 0.00 48 1002.9
20260505024345 68 8 3.0 5.0 0.00 0.00 0.00 48 1002.8
20260505023842 68 337 5.0 6.0 0.00 0.00 0.00 48 1002.7
20260505023339 68 22 8.0 9.0 0.00 0.00 0.00 48 1002.6
20260505022836 69 25 11.0 16.0 0.00 0.00 0.00 49 1002.5
20260505022333 69 341 5.0 7.0 0.00 0.00 0.00 51 1002.3
20260505021830 69 241 3.0 6.0 0.00 0.00 0.00 53 1002.1
20260505021327 70 232 3.0 3.0 0.00 0.00 0.00 54 1002.1
20260505020822 70 76 4.0 5.0 0.00 0.00 0.00 54 1002.0
20260505020318 71 30 9.0 14.0 0.00 0.00 0.00 52 1001.4
20260505015815 71 355 7.0 8.0 0.00 0.00 0.00 56 1001.4
20260505015313 72 79 6.0 8.0 0.00 0.00 0.00 58 1001.2
20260505014810 73 322 3.0 3.0 0.00 0.00 0.00 60 1000.7
20260505014307 73 301 2.0 3.0 0.00 0.00 0.00 58 1000.4
20260505013803 73 246 2.0 2.0 0.00 0.00 0.00 57 999.9
20260505013300 73 236 3.0 3.0 0.00 0.00 0.00 57 999.9
20260505012759 74 272 1.0 1.0 0.00 0.00 0.00 57 999.9
20260505012256 73 240 1.0 1.0 0.00 0.00 0.00 57 999.8
20260505011752 73 343 1.0 2.0 0.00 0.00 0.00 59 1000.0
20260505011249 73 319 2.0 2.0 0.00 0.00 0.00 59 1000.1
20260505010744 74 303 1.0 2.0 0.00 0.00 0.00 60 999.9
20260505010241 75 254 1.0 1.0 0.00 0.00 0.00 58 999.8
20260505005737 75 259 3.0 3.0 0.00 0.00 0.00 57 999.7
20260505005234 75 241 2.0 3.0 0.00 0.00 0.00 56 999.5
20260505004732 76 222 2.0 2.0 0.00 0.00 0.00 57 999.5
20260505004228 76 218 3.0 3.0 0.00 0.00 0.00 55 999.3
20260505003725 76 238 1.0 2.0 0.00 0.00 0.00 55 999.4
20260505003223 77 226 2.0 2.0 0.00 0.00 0.00 54 999.5
20260505002719 77 230 1.0 2.0 0.00 0.00 0.00 54 998.9
20260505002217 77 210 2.0 2.0 0.00 0.00 0.00 53 999.2
20260505001714 77 236 2.0 3.0 0.00 0.00 0.00 53 999.0
20260505001211 77 198 2.0 2.0 0.00 0.00 0.00 53 999.2
20260505000708 77 261 2.0 2.0 0.00 0.00 0.00 53 999.0
20260505000206 76 243 2.0 2.0 0.00 0.00 0.00 54 999.2
20260504235702 76 241 3.0 3.0 0.00 0.00 0.00 54 999.2
20260504235158 76 255 3.0 5.0 0.00 0.00 0.00 53 999.1
20260504234656 77 218 2.0 2.0 0.00 0.00 0.00 53 999.3
20260504234153 77 220 3.0 3.0 0.00 0.00 0.00 52 999.5
20260504233649 77 171 3.0 5.0 0.00 0.00 0.00 52 999.3
20260504233145 77 234 3.0 3.0 0.00 0.00 0.00 51 999.3
20260504232643 77 218 5.0 6.0 0.00 0.00 0.00 50 999.2
20260504232139 77 230 4.0 5.0 0.00 0.00 0.00 49 999.2
20260504231636 78 215 8.0 9.0 0.00 0.00 0.00 48 999.3
20260504231132 79 263 5.0 7.0 0.00 0.00 0.00 47 999.1
20260504230629 79 229 6.0 7.0 0.00 0.00 0.00 47 999.4
20260504230128 79 201 4.0 5.0 0.00 0.00 0.00 48 999.3
20260504225626 79 230 6.0 7.0 0.00 0.00 0.00 48 999.7
20260504225121 79 251 5.0 7.0 0.00 0.00 0.00 46 999.5
20260504224618 80 222 3.0 3.0 0.00 0.00 0.00 47 999.7
20260504224115 80 242 4.0 6.0 0.00 0.00 0.00 47 999.6
20260504223612 80 173 5.0 7.0 0.00 0.00 0.00 47 999.7
20260504223108 80 196 6.0 9.0 0.00 0.00 0.00 47 999.7
20260504222605 80 231 6.0 7.0 0.00 0.00 0.00 47 999.8
20260504222102 80 205 5.0 8.0 0.00 0.00 0.00 46 999.8
20260504221559 80 227 6.0 8.0 0.00 0.00 0.00 46 999.8
20260504221056 80 201 4.0 6.0 0.00 0.00 0.00 48 999.8
20260504220552 80 243 4.0 6.0 0.00 0.00 0.00 46 1000.0
20260504220050 81 188 8.0 9.0 0.00 0.00 0.00 46 999.9
20260504215546 81 280 5.0 7.0 0.00 0.00 0.00 46 999.9
20260504215044 80 237 1.0 2.0 0.00 0.00 0.00 48 999.8
20260504214539 80 229 9.0 13.0 0.00 0.00 0.00 47 999.7
20260504214036 81 232 3.0 5.0 0.00 0.00 0.00 46 999.9
20260504213532 79 232 4.0 5.0 0.00 0.00 0.00 46 999.8
20260504213030 80 225 5.0 6.0 0.00 0.00 0.00 47 999.9
20260504212525 80 219 4.0 5.0 0.00 0.00 0.00 48 1000.0
20260504212023 80 233 6.0 7.0 0.00 0.00 0.00 47 1000.2
20260504211520 80 233 5.0 7.0 0.00 0.00 0.00 48 1000.1
20260504211017 80 219 6.0 7.0 0.00 0.00 0.00 46 1000.0
20260504210514 80 256 2.0 2.0 0.00 0.00 0.00 48 1000.2
20260504210011 81 249 4.0 5.0 0.00 0.00 0.00 47 1000.3
20260504205508 81 250 3.0 5.0 0.00 0.00 0.00 45 1000.4
20260504205006 80 219 4.0 6.0 0.00 0.00 0.00 46 1000.6
20260504204504 81 215 6.0 7.0 0.00 0.00 0.00 46 1000.4
20260504204003 80 202 3.0 3.0 0.00 0.00 0.00 50 1000.6
20260504203500 80 194 7.0 9.0 0.00 0.00 0.00 46 1000.4
20260504202956 80 245 2.0 2.0 0.00 0.00 0.00 46 1000.6
20260504202453 79 233 4.0 5.0 0.00 0.00 0.00 47 1000.7
20260504201950 80 224 6.0 8.0 0.00 0.00 0.00 47 1000.8
20260504201447 80 234 4.0 8.0 0.00 0.00 0.00 45 1000.8
20260504200944 80 211 5.0 5.0 0.00 0.00 0.00 48 1000.9
20260504200441 79 268 3.0 3.0 0.00 0.00 0.00 48 1000.9
20260504195938 80 243 4.0 7.0 0.00 0.00 0.00 45 1000.9
20260504195433 79 244 4.0 6.0 0.00 0.00 0.00 47 1001.0
20260504194930 79 226 4.0 6.0 0.00 0.00 0.00 47 1001.0
20260504194426 79 212 4.0 6.0 0.00 0.00 0.00 46 1000.9
20260504193922 79 238 5.0 6.0 0.00 0.00 0.00 47 1001.0
20260504193420 79 256 5.0 8.0 0.00 0.00 0.00 48 1000.8
20260504192918 79 229 6.0 7.0 0.00 0.00 0.00 46 1001.1
20260504192415 79 178 5.0 7.0 0.00 0.00 0.00 47 1001.0
20260504191914 79 239 3.0 5.0 0.00 0.00 0.00 48 1001.1
20260504191412 78 188 4.0 5.0 0.00 0.00 0.00 49 1001.0
20260504190907 78 239 4.0 8.0 0.00 0.00 0.00 50 1001.0
20260504190403 78 186 9.0 14.0 0.00 0.00 0.00 49 1001.0
20260504185900 78 186 7.0 10.0 0.00 0.00 0.00 50 1001.1
20260504185357 78 211 4.0 6.0 0.00 0.00 0.00 51 1000.8
20260504184853 78 246 3.0 5.0 0.00 0.00 0.00 51 1001.0
20260504184349 77 260 4.0 5.0 0.00 0.00 0.00 49 1000.9
20260504183845 78 227 3.0 3.0 0.00 0.00 0.00 50 1001.0
20260504183343 78 204 4.0 5.0 0.00 0.00 0.00 52 1001.1
20260504182840 78 206 6.0 7.0 0.00 0.00 0.00 51 1001.0
20260504182337 78 207 4.0 6.0 0.00 0.00 0.00 51 1001.1
20260504181834 78 212 6.0 9.0 0.00 0.00 0.00 52 1001.2
20260504181331 77 228 3.0 3.0 0.00 0.00 0.00 51 1001.2
20260504180830 77 243 5.0 7.0 0.00 0.00 0.00 51 1001.1
20260504180328 77 259 3.0 3.0 0.00 0.00 0.00 51 1001.3
20260504175826 77 241 5.0 7.0 0.00 0.00 0.00 51 1001.3
20260504175322 76 252 5.0 6.0 0.00 0.00 0.00 52 1001.4
20260504174821 76 243 5.0 7.0 0.00 0.00 0.00 52 1001.4
20260504174318 77 229 4.0 6.0 0.00 0.00 0.00 50 1001.4
20260504173815 77 228 4.0 5.0 0.00 0.00 0.00 53 1001.3
20260504173311 76 220 3.0 3.0 0.00 0.00 0.00 51 1001.4
20260504172809 76 229 4.0 6.0 0.00 0.00 0.00 52 1001.4
20260504172305 76 188 6.0 8.0 0.00 0.00 0.00 51 1001.3
20260504171801 76 217 3.0 3.0 0.00 0.00 0.00 53 1001.7
20260504171258 75 215 5.0 7.0 0.00 0.00 0.00 52 1001.4
20260504170755 76 189 2.0 2.0 0.00 0.00 0.00 53 1001.7
20260504170252 76 229 5.0 6.0 0.00 0.00 0.00 51 1001.7
20260504160210 74 219 4.0 6.0 0.00 0.00 0.00 54 1002.0
20260504151139 72 218 5.0 7.0 0.00 0.00 0.00 58 1002.2
20260504150636 71 257 6.0 10.0 0.00 0.00 0.00 58 1002.5
20260504150133 71 198 5.0 6.0 0.00 0.00 0.00 58 1002.3
20260504141101 69 228 4.0 5.0 0.00 0.00 0.00 64 1003.1
20260504140558 69 214 3.0 3.0 0.00 0.00 0.00 66 1003.0
20260504130522 63 200 2.0 2.0 0.00 0.00 0.00 75 1003.5
20260504110409 52 208 0.0 0.0 0.00 0.00 0.00 88 1003.9
20260504100326 51 248 0.0 0.0 0.00 0.00 0.00 90 1004.5